TimeEDT,TemperatureF,Dew PointF,Humidity,Sea Level PressureIn,VisibilityMPH,Wind Direction,Wind SpeedMPH,Gust SpeedMPH,PrecipitationIn,Events,Conditions,WindDirDegrees,DateUTC
12:56 AM,44.1,43.0,96,30.34,10.0,NNE,3.5,-,N/A,,Clear,30,2013-05-04 04:56:00
1:56 AM,43.0,42.1,97,30.32,10.0,NNE,4.6,-,N/A,,Clear,30,2013-05-04 05:56:00
2:56 AM,44.1,43.0,96,30.31,10.0,NNE,6.9,-,N/A,,Clear,30,2013-05-04 06:56:00
3:56 AM,44.1,42.1,93,30.31,10.0,NNE,5.8,-,N/A,,Clear,20,2013-05-04 07:56:00
4:56 AM,43.0,41.0,93,30.30,10.0,NE,6.9,-,N/A,,Clear,40,2013-05-04 08:56:00
5:56 AM,42.1,39.9,92,30.31,10.0,NNE,3.5,-,N/A,,Clear,30,2013-05-04 09:56:00
6:56 AM,46.9,43.0,86,30.32,10.0,ENE,5.8,-,N/A,,Clear,60,2013-05-04 10:56:00
7:56 AM,50.0,41.0,71,30.32,10.0,ENE,9.2,-,N/A,,Clear,60,2013-05-04 11:56:00
8:56 AM,52.0,39.9,63,30.32,10.0,NNE,12.7,-,N/A,,Clear,30,2013-05-04 12:56:00
9:56 AM,53.1,37.9,57,30.32,10.0,NE,16.1,23.0,N/A,,Clear,40,2013-05-04 13:56:00
10:56 AM,53.1,37.9,57,30.32,10.0,NNE,17.3,25.3,N/A,,Clear,30,2013-05-04 14:56:00
11:56 AM,54.0,39.0,57,30.32,10.0,NNE,17.3,26.5,N/A,,Clear,30,2013-05-04 15:56:00
12:56 PM,54.0,39.0,57,30.31,10.0,NNE,17.3,26.5,N/A,,Clear,30,2013-05-04 16:56:00
1:56 PM,55.0,37.9,53,30.31,10.0,NNE,17.3,26.5,N/A,,Partly Cloudy,30,2013-05-04 17:56:00
2:56 PM,53.1,37.0,55,30.30,10.0,NE,12.7,26.5,N/A,,Partly Cloudy,40,2013-05-04 18:56:00
3:56 PM,53.1,37.0,55,30.30,10.0,NE,15.0,-,N/A,,Clear,50,2013-05-04 19:56:00
4:56 PM,50.0,37.9,63,30.30,10.0,NE,15.0,21.9,N/A,,Scattered Clouds,40,2013-05-04 20:56:00
5:56 PM,48.9,39.0,69,30.30,10.0,ENE,9.2,19.6,N/A,,Partly Cloudy,70,2013-05-04 21:56:00
6:56 PM,46.9,37.9,71,30.29,10.0,NE,11.5,-,N/A,,Partly Cloudy,50,2013-05-04 22:56:00
7:56 PM,45.0,37.9,76,30.30,10.0,NE,8.1,-,N/A,,Clear,50,2013-05-04 23:56:00
8:56 PM,43.0,39.0,86,30.31,10.0,NNE,4.6,-,N/A,,Clear,30,2013-05-05 00:56:00
9:56 PM,43.0,39.0,86,30.31,10.0,NNE,5.8,-,N/A,,Clear,30,2013-05-05 01:56:00
10:56 PM,43.0,39.0,86,30.30,10.0,NNE,5.8,-,N/A,,Clear,30,2013-05-05 02:56:00
11:56 PM,42.1,39.0,89,30.30,10.0,NNE,5.8,-,N/A,,Clear,30,2013-05-05 03:56:00